TimeHST,TemperatureF,Dew PointF,Humidity,Sea Level PressureIn,VisibilityMPH,Wind Direction,Wind SpeedMPH,Gust SpeedMPH,PrecipitationIn,Events,Conditions,WindDirDegrees,DateUTC
12:56 AM,68.9,64.9,87,30.04,10.0,NNE,5.8,-,N/A,,Partly Cloudy,30,2013-08-02 10:56:00
1:56 AM,68.9,65.8,90,30.03,10.0,NNE,5.8,-,N/A,,Clear,30,2013-08-02 11:56:00
2:56 AM,66.9,64.9,93,30.02,10.0,ENE,5.8,-,N/A,,Partly Cloudy,60,2013-08-02 12:56:00
3:56 AM,66.9,65.8,96,30.01,10.0,ENE,4.6,-,N/A,,Clear,70,2013-08-02 13:56:00
4:56 AM,66.9,64.9,93,30.01,10.0,ENE,5.8,-,N/A,,Clear,60,2013-08-02 14:56:00
5:56 AM,64.9,64.9,100,30.03,10.0,East,5.8,-,N/A,,Clear,90,2013-08-02 15:56:00
6:56 AM,68.9,68.0,97,30.04,10.0,NE,6.9,-,N/A,,Clear,40,2013-08-02 16:56:00
7:56 AM,75.9,66.9,74,30.04,10.0,NNE,4.6,-,N/A,,Clear,30,2013-08-02 17:56:00
8:56 AM,79.9,63.0,56,30.04,10.0,Calm,Calm,-,N/A,,Clear,0,2013-08-02 18:56:00
9:33 AM,78.8,64.4,61,30.11,10.0,West,5.8,-,N/A,,Mostly Cloudy,260,2013-08-02 19:33:00
9:56 AM,79.9,64.9,60,30.04,10.0,Variable,6.9,-,N/A,,Mostly Cloudy,0,2013-08-02 19:56:00
10:04 AM,80.6,64.4,58,30.11,10.0,SSE,8.1,-,N/A,,Scattered Clouds,150,2013-08-02 20:04:00
10:14 AM,78.8,66.2,65,30.11,10.0,Variable,6.9,-,N/A,,Mostly Cloudy,0,2013-08-02 20:14:00
10:56 AM,78.8,66.2,65,30.11,10.0,Variable,3.5,-,N/A,,Overcast,0,2013-08-02 20:56:00
11:56 AM,79.9,64.9,60,30.03,10.0,Variable,4.6,-,N/A,,Overcast,0,2013-08-02 21:56:00
12:16 PM,82.4,64.4,54,30.09,10.0,Variable,5.8,-,N/A,,Scattered Clouds,0,2013-08-02 22:16:00
12:35 PM,80.6,64.4,58,30.08,10.0,WNW,10.4,-,N/A,,Mostly Cloudy,300,2013-08-02 22:35:00
12:56 PM,81.0,64.9,58,30.01,10.0,Variable,6.9,-,N/A,,Mostly Cloudy,0,2013-08-02 22:56:00
1:19 PM,80.6,64.4,58,30.06,10.0,Variable,5.8,-,N/A,,Mostly Cloudy,0,2013-08-02 23:19:00
1:56 PM,80.6,64.4,58,30.06,10.0,WNW,8.1,-,N/A,,Mostly Cloudy,290,2013-08-02 23:56:00
2:40 PM,80.6,64.4,58,30.04,10.0,NE,11.5,-,N/A,,Mostly Cloudy,40,2013-08-03 00:40:00
2:56 PM,79.0,64.9,62,29.99,10.0,ESE,5.8,-,N/A,,Mostly Cloudy,120,2013-08-03 00:56:00
3:03 PM,78.8,66.2,65,30.04,10.0,Variable,5.8,-,N/A,,Overcast,0,2013-08-03 01:03:00
3:56 PM,81.0,65.8,60,29.98,10.0,NNW,4.6,-,N/A,,Overcast,340,2013-08-03 01:56:00
4:39 PM,80.6,64.4,58,30.03,10.0,NE,15.0,-,N/A,,Mostly Cloudy,40,2013-08-03 02:39:00
4:56 PM,79.9,64.9,60,29.97,10.0,NE,16.1,25.3,N/A,,Mostly Cloudy,40,2013-08-03 02:56:00
5:56 PM,77.9,66.9,69,29.98,10.0,NNE,16.1,-,N/A,,Clear,30,2013-08-03 03:56:00
6:56 PM,74.8,65.8,73,30.01,10.0,NE,12.7,-,N/A,,Mostly Cloudy,40,2013-08-03 04:56:00
7:10 PM,73.4,66.2,78,30.07,10.0,NE,11.5,19.6,N/A,,Mostly Cloudy,40,2013-08-03 05:10:00
7:24 PM,73.4,66.2,78,30.07,10.0,ENE,11.5,-,N/A,,Scattered Clouds,60,2013-08-03 05:24:00
7:37 PM,73.4,66.2,78,30.07,10.0,ENE,10.4,-,N/A,,Mostly Cloudy,60,2013-08-03 05:37:00
7:45 PM,73.4,66.2,78,30.08,10.0,NE,12.7,-,N/A,,Scattered Clouds,40,2013-08-03 05:45:00
7:56 PM,73.9,66.9,79,30.01,10.0,ENE,9.2,-,N/A,,Mostly Cloudy,60,2013-08-03 05:56:00
8:21 PM,73.4,66.2,78,30.08,10.0,NE,13.8,-,N/A,,Scattered Clouds,40,2013-08-03 06:21:00
8:56 PM,72.0,65.8,81,30.02,10.0,NE,10.4,-,N/A,,Clear,50,2013-08-03 06:56:00
9:56 PM,70.0,65.8,87,30.04,-9999.0,ENE,5.8,-,N/A,,Clear,70,2013-08-03 07:56:00
10:56 PM,70.0,65.8,87,30.04,10.0,NE,8.1,-,N/A,,Clear,40,2013-08-03 08:56:00
11:56 PM,70.0,65.8,87,30.03,10.0,ENE,3.5,-,N/A,,Partly Cloudy,70,2013-08-03 09:56:00